Tracking 30306 objects as of 25-Apr-2025
HD Live streaming from Space Station
objects crossing your sky now

STARLINK-30092

Track STARLINK-30092 now!
10-day predictions
STARLINK-30092 is classified as:


NORAD ID: 57467
Int'l Code: 2023-107L
Perigee: 564.8 km
Apogee: 567.5 km
Inclination: 43.0 °
Period: 95.8 minutes
Semi major axis: 6937 km
RCS: Unknown
Launch date: July 28, 2023
Source: (TBD)
Launch site: AIR FORCE EASTERN TEST RANGE (AFETR)
Your satellite tracking list
Your tracking list is empty




NASA's NSSDC Master Catalog

Two Line Element Set (TLE):
1 57467U 23107L   25114.79089862 -.00008807  00000-0 -63727-3 0  9997
2 57467  43.0027 271.6969 0001881 258.0734 101.9897 15.02559853 97211
Source of the keplerian elements: AFSPC